Change the Weather History Date:

Friday, April 5, 2013

  Actual Average Record
Temperature  
Mean Temperature 52 °F -  
Max Temperature 68 °F 60 °F 80 °F (2001)
Min Temperature 37 °F 41 °F 26 °F (2007)
Degree Days  
Heating Degree Days 12    
Growing Degree Days 2 (Base 50)    
Moisture  
Dew Point 39 °F    
Average Humidity 60    
Maximum Humidity 94    
Minimum Humidity 40    
Precipitation  
Precipitation 0.00 in - - ()
Sea Level Pressure  
Sea Level Pressure 30.08 in    
Wind  
Wind Speed 6 mph (South)    
Max Wind Speed 14 mph    
Max Gust Speed -    
Visibility 10 miles    
Events      
Averages and records for this station are not official NWS values.
T = Trace of Precipitation, MM = Missing Value Source: NWS Daily Summary

Daily Weather History Graph

Daily Weather History Graph

Search for Another Location

Airport or City:

Trip Planner

Search our weather history database for the weather conditions in past years. The results will help you decide how hot, cold, wet, or windy it might be!

Date:

Astronomy

Apr. 05, 2013 Rise Set
Actual Time 6:52 AM CDT 7:41 PM CDT
Civil Twilight 6:25 AM CDT 8:08 PM CDT
Nautical Twilight 5:53 AM CDT 8:40 PM CDT
Astronomical Twilight 5:20 AM CDT 9:13 PM CDT
Moon 3:57 AM CDT (4/5) 3:09 PM CDT (4/5)
Length of Visible Light 13h 43m
Length of Day
12h 49m
Waning Crescent, 23% of the Moon is Illuminated
Apr 5
Waning Crescent
Apr 10
New
Apr 18
First Quarter
Apr 25
Full
May 2
Last Quarter

Hourly Weather History & Observations

Time (CDT) Temp. Windchill Dew Point Humidity Pressure Visibility Wind Dir Wind Speed Gust Speed Precip Events Conditions
12:58 AM 41.7 °F 37.3 °F 30.9 °F 66% 30.12 in 10.0 mi SW 6.9 mph - N/A   Clear
1:58 AM 42.4 °F 39.6 °F 32.4 °F 68% 30.12 in 10.0 mi SW 4.6 mph - N/A   Clear
2:58 AM 42.4 °F 38.8 °F 31.3 °F 65% 30.12 in 10.0 mi WSW 5.8 mph - N/A   Clear
3:58 AM 42.1 °F 38.4 °F 31.3 °F 66% 30.12 in 10.0 mi SW 5.8 mph - N/A   Clear
4:58 AM 39.4 °F - 32.0 °F 75% 30.14 in 10.0 mi SSW 2.3 mph - N/A   Clear
5:58 AM 37.2 °F - 32.2 °F 82% 30.15 in 10.0 mi Calm Calm - N/A   Clear
6:58 AM 37.8 °F - 31.8 °F 79% 30.15 in 10.0 mi Calm Calm - N/A   Clear
7:58 AM 38.1 °F - 36.5 °F 94% 30.17 in 10.0 mi Calm Calm - N/A   Clear
8:58 AM 46.4 °F 43.5 °F 37.0 °F 70% 30.19 in 10.0 mi NE 5.8 mph - N/A   Clear
9:58 AM 50.4 °F - 38.8 °F 65% 30.19 in 10.0 mi East 5.8 mph - N/A   Clear
10:58 AM 54.9 °F - 40.1 °F 58% 30.19 in 10.0 mi ESE 5.8 mph - N/A   Clear
11:58 AM 58.5 °F - 39.9 °F 50% 30.18 in 10.0 mi ESE 4.6 mph - N/A   Clear
12:58 PM 62.8 °F - 41.0 °F 45% 30.14 in 10.0 mi SSE 5.8 mph - N/A   Clear
1:58 PM 65.3 °F - 41.7 °F 42% 30.11 in 10.0 mi SSW 10.4 mph - N/A   Clear
2:58 PM 67.5 °F - 42.4 °F 40% 30.08 in 10.0 mi SSW 10.4 mph - N/A   Clear
3:58 PM 67.1 °F - 43.5 °F 42% 30.04 in 10.0 mi South 11.5 mph - N/A   Partly Cloudy
4:58 PM 68.0 °F - 43.7 °F 41% 30.02 in 10.0 mi SSW 13.8 mph - N/A   Clear
5:58 PM 67.5 °F - 44.6 °F 44% 30.00 in 10.0 mi SSW 11.5 mph - N/A   Clear
6:58 PM 62.6 °F - 46.0 °F 55% 29.99 in 10.0 mi South 10.4 mph - N/A   Clear
7:58 PM 57.4 °F - 45.0 °F 63% 29.98 in 10.0 mi South 8.1 mph - N/A   Clear
8:58 PM 59.9 °F - 43.5 °F 55% 29.96 in 10.0 mi SSE 9.2 mph - N/A   Clear
9:58 PM 59.5 °F - 43.5 °F 55% 29.96 in 10.0 mi South 8.1 mph - N/A   Clear
10:58 PM 59.4 °F - 42.4 °F 54% 29.93 in 10.0 mi SSE 10.4 mph - N/A   Clear
11:58 PM 57.4 °F - 41.5 °F 56% 29.93 in 10.0 mi South 10.4 mph - N/A   Clear